Wind_Speed
35 35 35 36 37 37 37 37 36 37 36 36 37 37 38 39 40 41 41 42 43 44 45 46 47 48 49 49 49 48 48 48 48 48 48 48 46 46
34 34 34 35 35 36 36 36 35 35 34 34 36 36 37 37 38 39 39 40 41 42 43 45 46 46 46 47 46 46 47 47 46 45 45 45 45 44
33 33 33 33 34 34 34 34 34 33 34 33 34 35 35 35 35 36 37 38 40 41 41 42 43 43 43 43 43 43 42 43 42 41 42 42 42 41
32 32 31 31 32 32 31 32 32 32 32 32 33 34 33 33 33 34 35 37 38 39 39 39 40 40 40 40 39 39 38 39 38 39 39 39 39 39
30 31 31 30 30 29 29 30 31 31 32 32 32 32 32 32 32 32 33 34 36 36 36 37 37 37 37 36 37 37 36 36 36 36 36 36 36 36
29 29 29 29 30 29 29 30 30 30 30 30 31 30 30 30 30 31 32 32 33 34 34 34 34 33 34 34 35 35 34 34 34 34 34 33 33 33
28 28 28 29 29 29 29 29 28 28 28 28 28 28 28 28 29 29 30 30 31 32 32 31 31 31 32 33 33 32 31 31 32 32 32 31 31 32
27 27 28 28 29 28 28 27 27 26 26 26 26 26 26 27 27 27 29 29 29 29 29 29 28 30 31 31 31 30 30 30 30 30 30 30 31 31
27 28 28 28 28 28 26 25 24 24 25 25 24 24 24 25 26 27 27 28 27 27 26 26 27 29 29 30 29 28 28 28 27 27 27 28 29 29
27 28 28 28 27 26 25 24 24 24 23 23 23 23 24 25 25 26 25 26 25 25 25 26 27 27 27 27 26 25 25 26 25 25 25 26 25 24
26 27 26 25 25 25 24 23 23 22 22 22 22 22 23 24 25 24 24 24 24 25 25 26 26 26 25 26 26 25 24 24 23 23 23 22 21 21
25 25 25 25 24 23 23 23 21 21 22 22 22 22 23 24 24 24 23 24 25 25 24 24 24 24 24 24 24 24 23 22 22 21 20 20 19 18
24 24 24 23 22 21 21 21 21 21 22 22 22 23 24 24 24 24 24 25 25 24 23 23 23 23 23 21 21 22 22 20 19 18 17 17 16 16
23 22 22 22 22 21 21 21 21 22 22 23 24 24 24 24 24 24 25 25 24 23 23 23 23 23 22 21 19 19 19 18 17 15 14 14 15 15
22 22 22 21 20 20 21 21 21 23 24 24 24 25 25 24 24 25 25 24 23 22 22 22 23 23 21 20 19 19 18 17 17 15 15 15 15 15
22 22 21 20 20 20 20 21 22 23 24 24 25 25 25 25 25 25 24 23 21 21 21 21 22 21 19 18 19 19 18 16 15 15 14 14 14 13
21 21 20 19 19 20 20 21 23 24 24 25 25 25 25 25 24 23 21 20 20 20 20 20 19 18 17 17 17 17 16 14 14 14 13 13 13 12
21 21 20 19 19 20 21 22 23 24 25 25 25 25 24 23 22 21 20 19 19 19 19 18 17 16 15 16 16 16 14 13 12 12 12 12 11 9
20 19 19 20 20 21 22 23 24 25 26 26 25 24 23 22 20 19 18 17 18 17 17 16 15 15 15 14 15 15 14 13 12 11 11 11 9 7
20 20 20 21 21 22 23 24 25 25 26 25 24 22 21 20 19 17 16 16 16 16 16 15 14 14 14 14 14 14 13 12 11 11 10 9 7 6
21 21 21 22 22 24 24 25 26 25 25 24 22 21 19 18 17 16 16 16 15 15 15 14 13 14 14 14 13 13 13 12 11 10 8 6 5 4
22 22 23 23 24 25 25 26 26 25 24 22 20 20 19 18 17 17 16 16 15 14 13 13 13 13 14 13 12 12 12 12 11 9 6 4 3 2
23 23 24 25 25 26 26 26 25 23 21 21 20 19 18 17 17 16 16 15 15 14 13 12 12 13 13 12 11 11 10 10 8 6 3 2 1 2
Wind_Direction
293 293 292 290 288 286 287 286 284 282 279 276 277 278 279 278 278 279 280 281 281 281 280 281 282 281 281 281 281 281 281 281 281 280 279 276 277 278
293 293 292 291 290 289 287 286 285 285 282 280 279 279 280 280 280 280 281 282 283 283 284 285 285 283 283 282 282 282 282 281 282 280 278 276 276 276
294 293 293 292 292 291 287 285 284 284 282 281 279 279 280 280 281 282 283 284 284 285 287 288 287 286 284 283 282 281 282 281 281 281 278 277 276 276
295 294 293 293 293 292 288 286 286 285 283 283 282 280 282 281 283 285 287 288 287 288 289 290 289 288 286 285 284 284 283 282 282 281 278 278 276 275
296 295 293 294 295 292 290 288 288 286 284 284 284 283 285 284 285 287 290 290 292 292 292 292 292 292 290 289 289 286 283 281 281 280 280 278 278 277
296 297 296 296 295 293 292 291 289 287 286 285 285 285 287 286 288 290 291 292 294 294 294 294 294 293 293 292 291 288 285 283 281 281 281 280 279 278
296 297 297 298 297 296 295 294 291 289 288 289 288 287 289 289 290 291 293 295 297 296 295 294 295 296 298 297 294 291 288 286 286 284 282 280 280 281
295 296 298 300 298 298 299 296 293 290 290 291 290 290 291 292 292 293 296 296 297 298 297 295 295 299 301 299 296 292 291 292 291 287 283 282 280 281
294 296 298 301 300 299 299 298 296 292 291 294 294 295 295 295 295 296 299 301 300 299 297 297 299 301 301 301 300 297 294 295 294 290 286 285 283 282
293 295 297 299 298 298 297 297 299 297 296 296 297 296 297 297 299 301 302 303 304 303 302 303 305 305 304 305 305 302 300 298 295 295 291 288 284 282
292 295 297 298 298 297 296 297 300 300 300 300 299 301 302 303 303 304 305 305 306 305 304 305 306 307 306 306 305 302 301 299 296 296 294 289 286 285
294 295 296 297 297 297 298 299 298 300 301 302 302 303 303 305 305 305 306 307 307 307 306 307 307 306 307 307 306 304 303 299 297 295 293 290 287 287
295 295 295 295 295 298 299 300 301 302 302 303 303 303 304 305 305 305 305 306 306 306 307 308 308 308 309 308 308 307 305 301 299 296 294 293 292 291
295 295 296 296 294 295 297 298 300 303 303 304 304 303 304 304 304 305 306 307 307 306 305 306 307 308 308 307 308 309 308 304 302 298 295 298 300 300
295 294 294 293 293 294 296 296 298 302 302 303 304 304 303 302 303 304 305 307 307 307 308 309 311 310 309 309 311 312 311 307 304 301 300 304 304 307
293 294 294 292 292 295 296 297 299 302 303 304 304 304 303 301 302 303 305 305 306 308 309 310 312 313 312 312 313 315 314 311 309 306 304 304 304 305
293 294 293 292 293 295 297 299 302 303 305 306 306 304 303 303 301 301 302 305 306 308 308 310 314 316 315 316 316 317 318 314 309 308 308 308 310 311
292 292 292 294 295 296 298 300 303 304 306 307 306 305 305 304 303 302 303 304 306 307 308 308 312 316 315 316 315 316 317 315 310 310 309 310 311 308
294 292 291 291 292 295 297 299 301 304 306 307 306 305 305 303 302 302 303 305 307 307 309 311 312 314 316 317 319 317 317 314 311 313 314 313 309 300
294 293 292 291 292 295 296 298 301 304 305 306 305 304 304 304 303 301 302 305 305 305 307 310 312 316 320 322 323 322 320 315 311 313 313 309 305 293
291 292 294 293 294 295 296 298 301 303 303 304 303 303 303 303 302 301 301 303 303 304 305 308 313 320 324 323 324 325 325 321 316 312 311 302 294 273
290 292 294 294 296 297 297 299 300 301 302 301 300 300 301 300 300 300 300 300 300 302 304 308 313 319 323 323 322 323 324 322 317 312 306 294 268 217
291 294 295 296 296 297 297 298 299 298 297 297 297 298 298 298 298 298 298 299 300 300 301 306 312 317 320 322 321 322 323 322 317 308 297 272 196 147
Height
5640 5637 5634 5631 5628 5626 5624 5623 5622 5623 5625 5624 5623 5622 5621 5620 5620 5619 5618 5617 5616 5615 5613 5612 5610 5608 5607 5605 5604 5602 5601 5599 5598 5597 5596 5595 5595 5594
5632 5629 5626 5623 5620 5618 5616 5614 5613 5613 5614 5615 5614 5613 5611 5610 5610 5609 5608 5607 5605 5604 5602 5600 5598 5595 5593 5592 5590 5588 5587 5586 5584 5583 5582 5582 5581 5580
5624 5621 5618 5615 5613 5610 5608 5606 5605 5605 5605 5606 5605 5604 5603 5602 5601 5600 5598 5597 5596 5593 5591 5588 5586 5583 5581 5579 5577 5576 5574 5572 5571 5570 5569 5569 5568 5568
5616 5613 5610 5608 5605 5603 5600 5599 5598 5597 5597 5597 5597 5596 5595 5594 5593 5592 5590 5588 5586 5584 5581 5578 5575 5572 5569 5567 5565 5563 5562 5560 5559 5558 5557 5557 5557 5556
5609 5606 5603 5600 5598 5596 5594 5592 5591 5590 5589 5589 5589 5588 5587 5586 5585 5584 5582 5580 5577 5574 5571 5568 5565 5562 5559 5556 5554 5552 5551 5549 5548 5547 5546 5546 5546 5545
5602 5599 5596 5594 5592 5590 5588 5586 5585 5583 5582 5582 5582 5581 5580 5578 5577 5576 5574 5572 5569 5565 5562 5559 5556 5553 5550 5547 5545 5543 5540 5539 5538 5537 5536 5535 5535 5535
5596 5593 5591 5588 5586 5583 5582 5580 5578 5577 5576 5575 5574 5573 5572 5571 5570 5568 5566 5564 5562 5557 5554 5552 5549 5546 5542 5538 5535 5533 5531 5530 5529 5527 5527 5526 5526 5526
5590 5588 5585 5583 5581 5578 5576 5574 5572 5571 5570 5569 5568 5566 5565 5564 5562 5560 5558 5556 5554 5551 5547 5545 5541 5538 5535 5531 5527 5525 5523 5521 5520 5519 5518 5518 5518 5518
5585 5583 5581 5578 5575 5573 5571 5569 5567 5565 5564 5563 5562 5561 5559 5558 5556 5554 5551 5548 5545 5543 5540 5538 5535 5532 5528 5524 5520 5517 5515 5513 5512 5511 5511 5510 5510 5510
5579 5577 5575 5572 5570 5568 5566 5565 5563 5561 5559 5558 5557 5555 5553 5551 5549 5547 5544 5542 5539 5536 5533 5531 5528 5525 5521 5518 5514 5511 5509 5507 5505 5504 5503 5502 5502 5502
5573 5571 5569 5567 5565 5563 5561 5560 5558 5557 5555 5553 5552 5550 5548 5546 5543 5541 5538 5535 5533 5531 5528 5524 5522 5519 5516 5512 5509 5506 5504 5501 5499 5498 5496 5496 5496 5495
5568 5566 5564 5562 5560 5558 5556 5555 5554 5552 5551 5549 5547 5545 5543 5541 5538 5535 5532 5530 5527 5525 5522 5519 5516 5513 5512 5508 5504 5501 5498 5496 5494 5492 5491 5490 5490 5489
5562 5561 5559 5557 5555 5554 5552 5551 5550 5548 5547 5545 5543 5541 5539 5536 5533 5530 5527 5524 5522 5519 5517 5514 5511 5508 5505 5503 5500 5496 5494 5491 5489 5487 5486 5485 5485 5484
5558 5556 5554 5552 5551 5549 5548 5547 5545 5544 5542 5540 5538 5536 5533 5531 5528 5525 5522 5519 5516 5513 5511 5508 5506 5503 5500 5498 5495 5492 5489 5486 5484 5483 5482 5481 5480 5479
5552 5551 5549 5548 5546 5545 5544 5542 5541 5539 5537 5535 5533 5530 5527 5525 5522 5519 5517 5514 5511 5508 5505 5503 5500 5497 5494 5492 5489 5487 5485 5482 5479 5478 5477 5476 5476 5475
5547 5546 5545 5543 5542 5540 5539 5538 5536 5534 5532 5530 5527 5524 5521 5519 5516 5513 5511 5508 5506 5503 5500 5498 5495 5492 5490 5487 5484 5482 5480 5478 5476 5474 5474 5473 5472 5471
5543 5542 5540 5539 5537 5536 5535 5533 5531 5529 5527 5524 5521 5518 5515 5513 5510 5508 5505 5503 5501 5498 5496 5493 5490 5487 5485 5483 5481 5478 5476 5474 5472 5471 5470 5469 5468 5467
5538 5537 5535 5534 5533 5532 5530 5528 5526 5524 5521 5518 5515 5512 5510 5507 5505 5502 5500 5498 5495 5493 5491 5489 5487 5484 5482 5480 5478 5475 5473 5471 5469 5468 5467 5466 5465 5464
5532 5531 5530 5529 5528 5527 5525 5523 5521 5518 5515 5512 5509 5506 5504 5501 5499 5497 5495 5493 5491 5489 5487 5485 5483 5481 5479 5477 5474 5472 5470 5468 5467 5466 5464 5463 5462 5462
5527 5526 5525 5524 5522 5521 5519 5517 5515 5512 5509 5507 5504 5501 5499 5496 5494 5492 5490 5488 5487 5485 5483 5481 5479 5477 5475 5473 5471 5469 5467 5465 5464 5462 5461 5460 5460 5460
5522 5521 5520 5518 5517 5515 5513 5511 5509 5506 5504 5501 5498 5496 5494 5492 5489 5488 5486 5484 5482 5480 5479 5477 5475 5473 5471 5470 5468 5466 5464 5462 5460 5459 5458 5458 5458 5459
5516 5515 5514 5512 5510 5508 5506 5504 5502 5500 5497 5495 5493 5491 5489 5487 5485 5483 5481 5480 5478 5476 5475 5473 5471 5470 5469 5467 5465 5463 5462 5459 5458 5456 5456 5457 5457 5457
5510 5509 5507 5506 5504 5502 5500 5497 5495 5493 5491 5489 5487 5485 5483 5482 5480 5479 5477 5476 5474 5472 5471 5470 5468 5467 5465 5464 5462 5461 5459 5457 5456 5455 5455 5454 5455 5456